Location: Newark
(45.2862°N, 9.8850°E)
Time: 05:31:23
(UTC+00:00)

N. Korean satellite - Pass Details

Date: 13 December 2019
Orbit: 454 x 508 km, 97.2° (Epoch: 20 January)

Event Time Altitude Azimuth Distance (km) Brightness Sun altitude
Rises 17:28:32 0° 211° (SSW) 2,599 11.0 -18.6°
Reaches altitude 10° 17:31:32 10° 238° (WSW) 1,717 10.4 -19.1°
Maximum altitude 17:33:26 14° 269° (W) 1,506 10.1 -19.4°
Drops below altitude 10° 17:35:20 10° 300° (WNW) 1,715 10.0 -19.7°
Sets 17:38:21 0° 328° (NNW) 2,596 10.5 -20.3°
